Flag for United Kingdom Weather past 2 weeks in York, England, United Kingdom

Now
46 °F

Passing clouds.


Feels Like: 38 °F
Forecast: 37 / 47 °F
Wind: 26 mph from West

Location: Linton-On-Ouse

Current Time: Mar 31, 2015 at 1:52:56 PM

Latest Report: Mar 31, 2015 at 12:50 PM


Visibility: N/A

Pressure: 29.62 "Hg

Humidity: 62%

Dew point: 34 °F

Location of YorkLocation

Historic Weather in York — Graph

°F

York temperature yesterday

Maximum temperature yesterday: 52 °F (at 11:50 PM)
Minimum temperature yesterday: 37 °F (at 5:50 AM)
Average temperature yesterday: 44 °F

Past Weeks' High & Low Weather Summary

 TemperatureHumidityPressure
High57 °F (Mar 28, 1:50 PM)100% (Mar 18, 12:50 AM)30.60 "Hg (Mar 18, 12:50 AM)
Low28 °F (Mar 24, 4:50 AM)40% (Mar 25, 3:50 PM)29.12 "Hg (Mar 30, 11:50 PM)
Average43 °F73%29.98 "Hg
* Reported Mar 16 11:50 AM — Mar 31 12:50 PM, York, Weather by CustomWeather, © 2015

Note: Actual official high and low records may vary slightly from our data, if they occured in-between our weather recording intervals... More about our weather records

Advertising

York weather history for previous 24 hours

 ConditionsComfort  
Time TempWeatherWind HumidityBarometerVisibility
12:50 PM
Tue, Mar 31
46 °FPassing clouds.26 mph62%29.62 "HgN/A
12:00 PM43 °FPassing clouds.28 mph81%29.59 "HgN/A
11:50 AM46 °FSprinkles. Broken clouds.29 mph66%29.59 "HgN/A
10:50 AM48 °FPartly sunny.22 mph54%29.56 "HgN/A
9:50 AM46 °FPassing clouds.26 mph46%29.53 "HgN/A
8:50 AM46 °FPassing clouds.29 mph53%29.47 "HgN/A
7:50 AM45 °FPassing clouds.24 mph57%29.42 "HgN/A
6:50 AM45 °FPassing clouds.22 mph57%29.36 "HgN/A
5:50 AM45 °FPassing clouds.17 mph66%29.27 "HgN/A
4:50 AM46 °FClear.21 mph71%29.18 "HgN/A
3:50 AM46 °FPassing clouds.35 mph71%29.12 "HgN/A
2:50 AM48 °FPassing clouds.25 mph66%29.12 "HgN/A
1:50 AM48 °FPassing clouds.26 mph66%29.12 "HgN/A
12:50 AM50 °FPassing clouds.28 mph71%29.12 "HgN/A
11:50 PM
Mon, Mar 30
52 °FPassing clouds.29 mph72%29.12 "HgN/A
10:50 PM48 °FPassing clouds.14 mph94%29.15 "HgN/A
9:50 PM45 °FPassing clouds.17 mph93%29.24 "Hg4 mi
8:50 PM43 °FPassing clouds.14 mph93%29.33 "Hg6 mi
7:50 PM43 °FBroken clouds.16 mph87%29.39 "HgN/A
6:50 PM43 °FBroken clouds.18 mph81%29.47 "HgN/A
5:50 PM45 °FBroken clouds.15 mph71%29.53 "HgN/A
4:50 PM46 °FLight rain. More clouds than sun.13 mph53%29.62 "HgN/A
3:50 PM48 °FMore clouds than sun.23 mph43%29.65 "HgN/A
2:50 PM48 °FMostly cloudy.17 mph46%29.68 "HgN/A
1:50 PM48 °FPartly sunny.20 mph43%29.71 "HgN/A
Weather by CustomWeather, © 2015

See weather overviewHow to use our weather pages